This demonstration page uses our WeatherBlox Daily Observations layout. Learn more.

Left ArrowRight Arrow

39.51506, -84.39828

Hourly Observations for May 28, 2018

Temp ( °F °C ) Dew Point ( °F °C ) Humidity (%) Winds ( mph kmh ) Pressure ( in mb ) Visibility ( mi km ) Precip ( " mm )
12:15 am 00:15 Clear 73 22.9 69 20.5 86 86 Calm 29.94 1014 10 16 0.00 0.00
12:35 am 00:35 Clear 71 21.5 69 20.4 93 93 Calm 29.94 1014 10 16 0.00 0.00
12:55 am 00:55 Clear 69 20.7 68 19.9 95 95 Calm 29.94 1014 10 16 0.00 0.00
1:15 am 01:15 Clear 69 20.5 68 19.8 96 96 Calm 29.94 1014 7 11 0.00 0.00
1:35 am 01:35 Clear 68 20.2 67 19.7 97 97 Calm 29.94 1014 7 11 0.00 0.00
1:55 am 01:55 Clear with Mist and Fog 68 20.2 68 19.8 98 98 Calm 29.94 1014 5 8 0.00 0.00
2:15 am 02:15 Clear 68 20.1 67 19.7 98 98 Calm 29.94 1014 7 11 0.00 0.00
2:35 am 02:35 Clear 68 19.8 67 19.3 97 97 N 3 6 29.94 1014 7 11 0.00 0.00
2:55 am 02:55 Clear 68 20 67 19.4 96 96 N 3 6 29.94 1014 7 11 0.00 0.00
3:15 am 03:15 Clear 68 20.1 67 19.4 96 96 Calm 29.94 1014 7 11 0.00 0.00
3:35 am 03:35 Clear with Mist and Fog 67 19.7 67 19.2 97 97 Calm 29.94 1014 7 11 0.00 0.00
3:55 am 03:55 Clear with Mist and Fog 67 19.2 66 18.9 98 98 Calm 29.94 1014 4 6 0.00 0.00
4:15 am 04:15 Clear with Mist and Fog 66 19 66 18.7 98 98 Calm 29.94 1014 4 6 0.00 0.00
4:35 am 04:35 Mostly Cloudy with Fog 66 18.8 65 18.6 99 99 Calm 29.94 1014 1 1 0.00 0.00
4:55 am 04:55 Clear with Mist and Fog 65 18.6 65 18.4 99 99 Calm 29.91 1013 3 5 0.00 0.00
5:15 am 05:15 Clear with Mist and Fog 66 18.7 65 18.5 99 99 Calm 29.94 1014 5 8 0.00 0.00
5:35 am 05:35 Clear with Mist and Fog 65 18.5 65 18.2 98 98 Calm 29.94 1014 5 8 0.00 0.00
5:55 am 05:55 Mostly Cloudy with Mist and Fog 65 18.4 65 18.3 99 99 Calm 29.91 1013 1 2 0.00 0.00
6:15 am 06:15 Sunny with Mist and Fog 65 18.3 65 18.1 99 99 Calm 29.94 1014 3 4 0.00 0.00
6:35 am 06:35 Sunny with Mist and Fog 65 18.2 64 18 99 99 Calm 29.94 1014 4 6 0.00 0.00
6:55 am 06:55 Sunny with Mist and Fog 65 18.5 65 18.2 98 98 Calm 29.94 1014 4 6 0.00 0.00
7:15 am 07:15 Sunny with Mist and Fog 66 19.1 66 18.7 98 98 Calm 29.97 1015 4 6 0.00 0.00
7:35 am 07:35 Sunny with Mist and Fog 68 19.9 67 19.2 96 96 Calm 29.97 1015 5 8 0.00 0.00
7:55 am 07:55 Sunny with Mist and Fog 70 20.9 68 20 95 95 Calm 29.97 1015 5 8 0.00 0.00
8:15 am 08:15 Sunny with Mist and Fog 72 22 69 20.5 91 91 Calm 29.97 1015 7 11 0.00 0.00
8:35 am 08:35 Sunny 73 22.7 69 20.5 87 87 Calm 29.97 1015 7 11 0.00 0.00
8:55 am 08:55 Sunny 74 23.5 69 20.8 85 85 Calm 29.97 1015 7 11 0.00 0.00
9:15 am 09:15 Sunny 76 24.4 70 21 81 81 Calm 29.97 1015 10 16 0.00 0.00
9:35 am 09:35 Sunny 77 24.9 70 21.3 80 80 Calm 29.97 1015 10 16 0.00 0.00
9:55 am 09:55 Sunny 78 25.8 71 21.9 79 79 Calm 29.97 1015 10 16 0.00 0.00
10:15 am 10:15 Sunny 80 26.8 72 22.4 77 77 NNE 3 6 29.97 1015 10 16 0.00 0.00
10:35 am 10:35 Sunny 82 27.5 71 21.9 72 72 NNE 5 7 29.97 1015 10 16 0.00 0.00
10:55 am 10:55 Sunny 83 28.2 72 22 69 69 Calm 29.94 1014 10 16 0.00 0.00
11:15 am 11:15 Sunny 84 28.8 71 21.8 66 66 ENE 6 9 29.94 1014 10 16 0.00 0.00
11:35 am 11:35 Sunny 85 29.2 71 21.8 64 64 ENE 3 6 29.94 1014 10 16 0.00 0.00
11:55 am 11:55 Hazy 87 30.3 71 21.4 59 59 Calm 29.94 1014 3 5 0.00 0.00
12:15 pm 12:15 Hazy 88 31.2 72 22.3 59 59 E 5 7 29.94 1014 3 4 0.00 0.00
12:35 pm 12:35 Hazy 88 31.3 70 21.2 55 55 NE 6 9 29.94 1014 2 3 0.00 0.00
12:55 pm 12:55 Hazy 88 31.2 69 20.7 54 54 ENE 5 7 29.94 1014 5 8 0.00 0.00
1:15 pm 13:15 Mostly Cloudy with Haze 90 32 68 20 49 49 E 9 15 29.94 1014 2 2 0.00 0.00
1:35 pm 13:35 Hazy 91 32.5 68 20 48 48 ESE 9 15 29.91 1013 3 4 0.00 0.00
1:55 pm 13:55 Hazy 91 32.5 66 19.1 45 45 E 7 11 29.91 1013 7 11 0.00 0.00
2:15 pm 14:15 Hazy 90 32.4 68 20.1 48 48 E 12 19 29.91 1013 5 8 0.00 0.00
2:35 pm 14:35 Partly Cloudy 90 32.4 67 19.7 47 47 NE 6 9 29.91 1013 10 16 0.00 0.00
2:55 pm 14:55 Partly Cloudy 89 31.9 69 20.3 50 50 NNE 5 7 29.88 1012 10 16 0.00 0.00
3:15 pm 15:15 Partly Cloudy 92 33.3 68 19.8 45 45 ENE 8 13 29.88 1012 10 16 0.00 0.00
3:35 pm 15:35 Sunny 92 33.1 67 19.4 44 44 ESE 7 11 29.88 1012 10 16 0.00 0.00
3:55 pm 15:55 Mostly Cloudy 90 32.4 67 19.5 46 46 ENE 8 13 29.88 1012 10 16 0.00 0.00
4:15 pm 16:15 Sunny 91 32.6 65 18.2 42 42 ESE 10 17 29.88 1012 10 16 0.00 0.00
4:35 pm 16:35 Sunny 91 32.9 64 18 41 41 E 12 19 29.85 1011 10 16 0.00 0.00
4:55 pm 16:55 Sunny 91 32.5 64 18 42 42 E 12 19 29.85 1011 10 16 0.00 0.00
5:15 pm 17:15 Sunny 91 32.7 65 18.2 42 42 ENE 9 15 29.85 1011 10 16 0.00 0.00
5:35 pm 17:35 Sunny 91 32.5 63 17.2 40 40 E 9 15 29.85 1011 10 16 0.00 0.00
5:55 pm 17:55 Sunny 91 32.9 64 17.9 41 41 E 9 15 29.85 1011 10 16 0.00 0.00
6:15 pm 18:15 Sunny 90 32.1 63 17.4 41 41 ESE 12 19 29.85 1011 10 16 0.00 0.00
6:35 pm 18:35 Sunny 88 31.2 64 17.5 44 44 E 9 15 29.85 1011 10 16 0.00 0.00
6:55 pm 18:55 Sunny 87 30.8 64 17.7 45 45 ESE 10 17 29.85 1011 10 16 0.00 0.00
7:15 pm 19:15 Sunny 87 30.7 64 17.8 46 46 ESE 7 11 29.85 1011 10 16 0.00 0.00
7:35 pm 19:35 Sunny 86 30.1 64 18 48 48 E 6 9 29.85 1011 10 16 0.00 0.00
7:55 pm 19:55 Sunny 85 29.7 65 18.3 50 50 ESE 5 7 29.88 1012 10 16 0.00 0.00
8:15 pm 20:15 Sunny 85 29.7 65 18.1 50 50 ESE 5 7 29.85 1011 10 16 0.00 0.00
8:35 pm 20:35 Sunny 84 28.9 65 18.2 52 52 E 5 7 29.88 1012 10 16 0.00 0.00
8:55 pm 20:55 Sunny 79 25.9 70 20.9 74 74 Calm 29.91 1013 10 16 0.00 0.00
9:15 pm 21:15 Clear 76 24.3 70 21.1 82 82 NE 3 6 29.91 1013 10 16 0.00 0.00
9:35 pm 21:35 Clear 74 23.4 69 20.7 85 85 ESE 3 6 29.91 1013 10 16 0.00 0.00
9:55 pm 21:55 Clear 81 27.3 67 19.4 62 62 SSE 5 7 29.88 1012 10 16 0.00 0.00
10:15 pm 22:15 Clear 81 27.4 67 19.6 62 62 SSE 5 7 29.88 1012 10 16 0.00 0.00
10:35 pm 22:35 Clear 81 27.1 68 20.2 66 66 SSE 9 15 29.91 1013 10 16 0.00 0.00
10:55 pm 22:55 Clear 79 26.3 68 19.8 68 68 SSE 9 15 29.94 1014 10 16 0.00 0.00
11:15 pm 23:15 Clear 79 25.9 67 19.5 68 68 S 6 9 29.94 1014 10 16 0.00 0.00
11:35 pm 23:35 Clear 78 25.3 66 19.1 69 69 S 5 7 29.94 1014 10 16 0.00 0.00
11:55 pm 23:55 Clear 77 24.9 65 18.3 67 67 Calm 29.94 1014 10 16 0.00 0.00

Powered by AerisWeather